Location: Cicognara
(44.9500°N, 10.4667°E)
Time: 09:31:24
(UTC+00:00)

NOSS 3-1 (C) - Visible Passes

Search period start: 28 October 2021 00:00
Search period end: 07 November 2021 00:00
Orbit: 720 x 1488 km, 63.4° (Epoch: 24 October)

Date Brightness Start Highest point End Pass type
(mag) Time Alt. Az. Time Alt. Az. Time Alt. Az.
28 Oct 3.8 17:03:38 10° SW 17:08:52 59° NW 17:15:04 10° NNE visible
28 Oct 5.5 18:56:58 10° WNW 19:01:13 20° NNW 19:04:36 14° NNE visible
28 Oct 6.1 20:50:46 10° NNW 20:51:59 13° NNW 20:51:59 13° NNW visible
29 Oct 5.2 18:10:37 10° W 18:15:14 25° NNW 18:20:33 10° NNE visible
29 Oct 5.8 20:04:51 10° NW 20:08:03 16° N 20:08:03 16° N visible
30 Oct 4.7 17:24:27 10° W 17:29:23 33° NW 17:35:11 10° NNE visible
30 Oct 5.6 19:18:41 10° NW 19:22:30 16° N 19:24:06 15° N visible
30 Oct 6.3 21:11:11 10° NNW 21:11:29 11° NNW 21:11:29 11° NNW visible
31 Oct 4.2 16:38:33 10° WSW 16:43:43 47° NW 16:49:49 10° NNE visible
31 Oct 5.5 18:32:17 10° WNW 18:36:22 18° NNW 18:40:07 12° NNE visible
31 Oct 6.0 20:25:41 10° NNW 20:27:30 15° NNW 20:27:30 15° NNW visible
01 Nov 5.3 17:45:53 10° WNW 17:50:19 22° NNW 17:55:21 10° NNE visible
01 Nov 5.7 19:39:57 10° NNW 19:43:31 16° N 19:43:31 16° N visible
02 Nov 4.9 16:59:36 10° W 17:04:24 28° NNW 17:09:56 10° NNE visible
02 Nov 5.6 18:53:54 10° NW 18:57:42 16° N 18:59:31 15° NNE visible
02 Nov 6.1 20:45:56 10° NNW 20:46:55 13° NNW 20:46:55 13° NNW visible
03 Nov 5.5 18:07:37 10° NW 18:11:31 17° N 18:15:32 11° NNE visible
03 Nov 5.8 20:00:32 10° NNW 20:02:55 17° N 20:02:55 17° N visible
04 Nov 5.4 17:21:12 10° WNW 17:25:25 20° NNW 17:30:11 10° NNE visible
04 Nov 5.6 19:14:56 10° NNW 19:18:55 17° N 19:18:55 17° N visible
04 Nov 6.3 21:05:57 10° NNW 21:06:17 11° NNW 21:06:17 11° NNW visible
05 Nov 5.1 16:34:50 10° W 16:39:26 24° NNW 16:44:42 10° NNE visible
05 Nov 5.6 18:29:03 10° NW 18:32:55 16° N 18:34:55 14° NNE visible
05 Nov 5.9 20:20:40 10° NNW 20:22:18 16° NNW 20:22:18 16° NNW visible
06 Nov 5.5 17:42:54 10° NW 17:46:43 16° N 17:50:55 10° NNE visible
06 Nov 5.6 19:35:20 10° NNW 19:38:18 19° N 19:38:18 19° N visible
